TimeEST,TemperatureF,Dew PointF,Humidity,Sea Level PressureIn,VisibilityMPH,Wind Direction,Wind SpeedMPH,Gust SpeedMPH,PrecipitationIn,Events,Conditions,WindDirDegrees,DateUTC
12:56 AM,48.0,30.0,50,30.04,10.0,WSW,15.0,25.3,N/A,,Partly Cloudy,240,2013-01-20 05:56:00
1:56 AM,46.9,30.9,54,30.04,10.0,WSW,15.0,-,N/A,,Partly Cloudy,250,2013-01-20 06:56:00
2:56 AM,46.0,33.1,61,30.06,10.0,West,13.8,-,N/A,,Clear,260,2013-01-20 07:56:00
3:56 AM,45.0,34.0,65,30.09,10.0,West,15.0,-,N/A,,Clear,270,2013-01-20 08:56:00
4:56 AM,43.0,34.0,71,30.10,10.0,WNW,11.5,20.7,N/A,,Partly Cloudy,290,2013-01-20 09:56:00
5:56 AM,39.9,30.9,70,30.13,10.0,NW,8.1,-,N/A,,Clear,320,2013-01-20 10:56:00
6:56 AM,37.9,19.9,48,30.15,10.0,NW,10.4,-,N/A,,Clear,320,2013-01-20 11:56:00
7:56 AM,37.9,21.0,51,30.18,10.0,NW,11.5,19.6,N/A,,Partly Cloudy,310,2013-01-20 12:56:00
8:56 AM,37.0,19.0,48,30.22,10.0,WNW,8.1,-,N/A,,Partly Cloudy,300,2013-01-20 13:56:00
9:56 AM,37.0,15.1,41,30.25,10.0,WNW,12.7,-,N/A,,Partly Cloudy,300,2013-01-20 14:56:00
10:56 AM,39.0,12.9,34,30.27,10.0,WNW,9.2,-,N/A,,Partly Cloudy,300,2013-01-20 15:56:00
11:56 AM,39.0,7.0,27,30.27,10.0,NNW,10.4,-,N/A,,Partly Cloudy,340,2013-01-20 16:56:00
12:56 PM,41.0,9.0,27,30.24,10.0,NW,10.4,-,N/A,,Partly Cloudy,320,2013-01-20 17:56:00
1:56 PM,41.0,8.1,26,30.22,10.0,WNW,6.9,-,N/A,,Partly Cloudy,300,2013-01-20 18:56:00
2:56 PM,43.0,10.0,26,30.21,10.0,NNW,6.9,-,N/A,,Partly Cloudy,330,2013-01-20 19:56:00
3:56 PM,43.0,5.0,21,30.19,10.0,West,4.6,-,N/A,,Partly Cloudy,270,2013-01-20 20:56:00
4:56 PM,42.1,9.0,26,30.21,10.0,NW,4.6,-,N/A,,Scattered Clouds,310,2013-01-20 21:56:00
5:56 PM,37.9,12.9,36,30.21,10.0,North,8.1,-,N/A,,Scattered Clouds,360,2013-01-20 22:56:00
6:56 PM,36.0,10.9,36,30.23,10.0,NNW,10.4,-,N/A,,Scattered Clouds,340,2013-01-20 23:56:00
7:56 PM,35.1,12.0,39,30.23,10.0,NNW,10.4,-,N/A,,Scattered Clouds,330,2013-01-21 00:56:00
8:56 PM,33.1,12.0,42,30.23,10.0,WNW,6.9,-,N/A,,Partly Cloudy,300,2013-01-21 01:56:00
9:56 PM,30.9,9.0,40,30.23,10.0,NW,8.1,-,N/A,,Clear,310,2013-01-21 02:56:00
10:56 PM,28.9,12.0,49,30.22,10.0,WNW,5.8,-,N/A,,Partly Cloudy,300,2013-01-21 03:56:00
11:56 PM,28.0,12.0,51,30.21,10.0,NW,6.9,-,N/A,,Mostly Cloudy,320,2013-01-21 04:56:00